• In Belarus
  • List of Countries
  • For 7 days
  • Water Temperature
  • Satellite Maps
  • Weather Map
  • Weather Widgets
  • user-avatar
    Login

    Hourly Weather Caño Grande

    Today, 16 December, Saturday

    Time Temperature Precipitation Wind Pressure Humidity
    00:00 +21°C° 0 mm 2 mps 702 mmHg 71%
    01:00 +21°C° 0 mm 2 mps 702 mmHg 71%
    02:00 +21°C° 0 mm 2 mps 702 mmHg 70%
    03:00 +20°C° 0 mm 2 mps 702 mmHg 70%
    04:00 +20°C° 0 mm 2 mps 702 mmHg 69%
    05:00 +21°C° 0 mm 2 mps 702 mmHg 67%
    06:00 +21°C° 0 mm 2 mps 702 mmHg 66%
    07:00 +23°C° 0 mm 2 mps 703 mmHg 64%
    08:00 +24°C° 0 mm 2 mps 703 mmHg 60%
    09:00 +26°C° 0 mm 2 mps 703 mmHg 57%
    10:00 +28°C° 0 mm 3 mps 704 mmHg 53%
    11:00 +29°C° 0 mm 3 mps 703 mmHg 52%
    12:00 +29°C° 0 mm 3 mps 702 mmHg 51%
    13:00 +30°C° 0 mm 3 mps 702 mmHg 50%
    14:00 +29°C° 0 mm 2 mps 701 mmHg 53%
    15:00 +29°C° 0 mm 2 mps 701 mmHg 56%
    16:00 +28°C° 0 mm 2 mps 700 mmHg 59%
    17:00 +27°C° 0 mm 2 mps 700 mmHg 65%
    18:00 +25°C° 0 mm 1 mps 700 mmHg 72%
    19:00 +23°C° 0 mm 1 mps 700 mmHg 79%
    20:00 +23°C° 0 mm 1 mps 701 mmHg 79%
    21:00 +23°C° 0 mm 1 mps 701 mmHg 80%
    22:00 +23°C° 0 mm 1 mps 702 mmHg 80%
    23:00 +22°C° 0 mm 1 mps 701 mmHg 80%

    Tomorrow, 17 December, Sunday

    Time Temperature Precipitation Wind Pressure Humidity
    00:00 +21°C° 0 mm 2 mps 701 mmHg 80%
    01:00 +21°C° 0 mm 2 mps 701 mmHg 79%
    02:00 +20°C° 0.1 mm 2 mps 701 mmHg 78%
    03:00 +20°C° 0.1 mm 2 mps 701 mmHg 77%
    04:00 +20°C° 0.1 mm 2 mps 701 mmHg 75%
    05:00 +20°C° 0 mm 2 mps 702 mmHg 72%
    06:00 +21°C° 0 mm 2 mps 702 mmHg 69%
    07:00 +21°C° 0 mm 2 mps 703 mmHg 66%
    08:00 +24°C° 0 mm 3 mps 703 mmHg 59%
    09:00 +26°C° 0 mm 3 mps 704 mmHg 53%
    10:00 +28°C° 0 mm 3 mps 704 mmHg 47%
    11:00 +29°C° 0 mm 3 mps 703 mmHg 46%
    12:00 +29°C° 0 mm 3 mps 703 mmHg 45%
    13:00 +30°C° 0 mm 3 mps 702 mmHg 43%
    14:00 +30°C° 0 mm 3 mps 701 mmHg 45%
    15:00 +29°C° 0 mm 2 mps 701 mmHg 47%
    16:00 +29°C° 0 mm 2 mps 700 mmHg 48%
    17:00 +27°C° 0 mm 2 mps 701 mmHg 55%
    18:00 +25°C° 0 mm 2 mps 701 mmHg 61%
    19:00 +23°C° 0 mm 2 mps 701 mmHg 67%
    20:00 +21°C° 0 mm 2 mps 701 mmHg 65%
    21:00 +21°C° 0 mm 2 mps 702 mmHg 63%
    22:00 +21°C° 0 mm 2 mps 702 mmHg 61%
    23:00 +21°C° 0 mm 2 mps 702 mmHg 60%

    Day after tomorrow, 18 December, Monday

    Time Temperature Precipitation Wind Pressure Humidity
    00:00 +20°C° 0 mm 2 mps 702 mmHg 59%
    01:00 +20°C° 0 mm 2 mps 701 mmHg 58%
    02:00 +20°C° 0 mm 2 mps 701 mmHg 57%
    03:00 +20°C° 0 mm 2 mps 701 mmHg 55%
    04:00 +19°C° 0 mm 2 mps 701 mmHg 53%
    05:00 +20°C° 0 mm 2 mps 701 mmHg 52%
    06:00 +20°C° 0 mm 2 mps 702 mmHg 50%
    07:00 +21°C° 0 mm 2 mps 703 mmHg 49%
    08:00 +24°C° 0 mm 2 mps 703 mmHg 48%
    09:00 +26°C° 0 mm 3 mps 704 mmHg 46%
    10:00 +28°C° 0 mm 3 mps 704 mmHg 45%
    11:00 +29°C° 0 mm 3 mps 703 mmHg 44%
    12:00 +30°C° 0 mm 3 mps 703 mmHg 43%
    13:00 +31°C° 0 mm 3 mps 702 mmHg 43%
    14:00 +30°C° 0 mm 3 mps 701 mmHg 45%
    15:00 +30°C° 0 mm 2 mps 701 mmHg 47%
    16:00 +29°C° 0 mm 2 mps 700 mmHg 49%
    17:00 +27°C° 0 mm 2 mps 701 mmHg 57%
    18:00 +25°C° 0 mm 2 mps 701 mmHg 64%
    19:00 +23°C° 0 mm 1 mps 701 mmHg 72%
    20:00 +23°C° 0 mm 1 mps 701 mmHg 71%
    21:00 +23°C° 0 mm 1 mps 702 mmHg 70%
    22:00 +23°C° 0 mm 1 mps 702 mmHg 69%
    23:00 +21°C° 0 mm 2 mps 702 mmHg 68%

    19 December, Tuesday

    Time Temperature Precipitation Wind Pressure Humidity
    00:00 +21°C° 0 mm 2 mps 702 mmHg 68%
    01:00 +21°C° 0 mm 2 mps 702 mmHg 67%
    02:00 +20°C° 0 mm 2 mps 702 mmHg 65%
    03:00 +20°C° 0 mm 2 mps 701 mmHg 64%
    04:00 +20°C° 0 mm 2 mps 701 mmHg 63%
    05:00 +20°C° 0 mm 2 mps 702 mmHg 61%
    06:00 +21°C° 0 mm 2 mps 702 mmHg 59%
    07:00 +23°C° 0 mm 2 mps 703 mmHg 56%
    08:00 +25°C° 0 mm 2 mps 703 mmHg 54%
    09:00 +27°C° 0 mm 3 mps 704 mmHg 52%
    10:00 +29°C° 0 mm 3 mps 704 mmHg 50%
    11:00 +29°C° 0 mm 3 mps 703 mmHg 48%
    12:00 +30°C° 0 mm 3 mps 702 mmHg 47%
    13:00 +31°C° 0 mm 3 mps 701 mmHg 46%
    14:00 +30°C° 0 mm 3 mps 701 mmHg 48%
    15:00 +30°C° 0 mm 2 mps 700 mmHg 50%
    16:00 +29°C° 0 mm 2 mps 700 mmHg 52%
    17:00 +28°C° 0 mm 2 mps 700 mmHg 59%
    18:00 +26°C° 0 mm 2 mps 700 mmHg 66%
    19:00 +24°C° 0 mm 1 mps 701 mmHg 73%
    20:00 +23°C° 0 mm 1 mps 701 mmHg 72%
    21:00 +23°C° 0 mm 2 mps 701 mmHg 70%
    22:00 +23°C° 0 mm 2 mps 702 mmHg 69%
    23:00 +21°C° 0 mm 2 mps 702 mmHg 68%

    20 December, Wednesday

    Time Temperature Precipitation Wind Pressure Humidity
    00:00 +21°C° 0 mm 2 mps 701 mmHg 68%
    01:00 +21°C° 0 mm 2 mps 701 mmHg 67%
    02:00 +20°C° 0 mm 2 mps 701 mmHg 66%
    03:00 +20°C° 0 mm 2 mps 701 mmHg 64%
    04:00 +20°C° 0 mm 2 mps 701 mmHg 62%
    05:00 +20°C° 0 mm 2 mps 701 mmHg 61%
    06:00 +21°C° 0 mm 2 mps 702 mmHg 59%
    07:00 +23°C° 0 mm 2 mps 702 mmHg 58%
    08:00 +25°C° 0 mm 2 mps 703 mmHg 55%
    09:00 +27°C° 0 mm 2 mps 703 mmHg 53%
    10:00 +29°C° 0 mm 3 mps 703 mmHg 50%
    11:00 +29°C° 0 mm 3 mps 702 mmHg 49%
    12:00 +30°C° 0 mm 3 mps 702 mmHg 47%
    13:00 +31°C° 0 mm 3 mps 701 mmHg 46%
    14:00 +30°C° 0 mm 2 mps 700 mmHg 48%
    15:00 +30°C° 0 mm 2 mps 700 mmHg 50%
    16:00 +30°C° 0 mm 2 mps 699 mmHg 52%
    17:00 +28°C° 0 mm 2 mps 699 mmHg 59%
    18:00 +26°C° 0 mm 2 mps 700 mmHg 67%
    19:00 +24°C° 0 mm 1 mps 700 mmHg 74%
    20:00 +24°C° 0 mm 1 mps 700 mmHg 74%
    21:00 +23°C° 0 mm 1 mps 701 mmHg 73%
    22:00 +23°C° 0 mm 1 mps 701 mmHg 72%
    23:00 +23°C° 0 mm 2 mps 701 mmHg 72%

    21 December, Thursday

    Time Temperature Precipitation Wind Pressure Humidity
    00:00 +21°C° 0 mm 2 mps 700 mmHg 72%
    01:00 +21°C° 0 mm 2 mps 700 mmHg 72%
    02:00 +21°C° 0 mm 2 mps 700 mmHg 71%
    03:00 +21°C° 0 mm 2 mps 700 mmHg 70%
    04:00 +20°C° 0 mm 2 mps 700 mmHg 69%
    05:00 +21°C° 0 mm 2 mps 701 mmHg 67%
    06:00 +23°C° 0 mm 2 mps 701 mmHg 65%
    07:00 +23°C° 0 mm 2 mps 702 mmHg 63%
    08:00 +25°C° 0 mm 2 mps 702 mmHg 60%
    09:00 +27°C° 0 mm 2 mps 703 mmHg 57%
    10:00 +29°C° 0 mm 3 mps 703 mmHg 54%
    11:00 +29°C° 0 mm 2 mps 702 mmHg 53%
    12:00 +30°C° 0 mm 2 mps 701 mmHg 53%
    13:00 +30°C° 0 mm 2 mps 701 mmHg 52%
    14:00 +30°C° 0 mm 2 mps 700 mmHg 53%
    15:00 +30°C° 0 mm 2 mps 700 mmHg 54%
    16:00 +29°C° 0 mm 2 mps 699 mmHg 55%
    17:00 +28°C° 0 mm 2 mps 700 mmHg 62%
    18:00 +26°C° 0 mm 2 mps 700 mmHg 68%
    19:00 +24°C° 0 mm 1 mps 700 mmHg 75%
    20:00 +24°C° 0 mm 1 mps 700 mmHg 75%
    21:00 +24°C° 0 mm 1 mps 701 mmHg 74%
    22:00 +23°C° 0 mm 1 mps 701 mmHg 74%
    23:00 +23°C° 0 mm 2 mps 701 mmHg 75%
    Show more